Location: Escondida
(34.1015°N, 106.8964°W)
Time: 14:18:39
(UTC+00:00)

YUBILEINY - Visible Passes

Search period start: 11 April 2026 00:00
Search period end: 21 April 2026 00:00
Orbit: 1477 x 1509 km, 82.5° (Epoch: 11 April)

Date Brightness Start Highest point End Pass type
(mag) Time Alt. Az. Time Alt. Az. Time Alt. Az.
11 Apr ? 05:58:11 10° NNE 06:01:28 15° NE 06:01:28 15° NE visible
11 Apr ? 07:52:19 10° N 07:57:22 40° N 07:57:22 40° N visible
11 Apr ? 09:52:56 10° NW 09:53:15 10° NW 09:53:15 10° NW visible
12 Apr ? 07:02:52 10° N 07:08:04 37° NNE 07:08:04 37° NNE visible
12 Apr ? 09:00:32 10° NNW 09:03:58 22° NW 09:03:58 22° NW visible
13 Apr ? 06:14:08 10° NNE 06:18:48 24° NE 06:18:48 24° NE visible
13 Apr ? 08:09:57 10° NNW 08:14:42 35° NNW 08:14:42 35° NNW visible
14 Apr ? 05:27:12 10° NE 05:29:32 12° NE 05:29:32 12° NE visible
14 Apr ? 07:20:06 10° N 07:25:26 43° N 07:25:26 43° N visible
14 Apr ? 09:19:28 10° NW 09:21:19 14° NW 09:21:19 14° NW visible
15 Apr ? 06:30:50 10° N 06:36:11 34° NE 06:36:11 34° NE visible
15 Apr ? 08:27:56 10° NNW 08:32:04 26° NW 08:32:04 26° NW visible
16 Apr ? 05:42:25 10° NNE 05:46:56 21° NE 05:46:56 21° NE visible
16 Apr ? 07:37:36 10° NNW 07:42:50 41° NNW 07:42:50 41° NNW visible
17 Apr ? 06:47:56 10° N 06:53:35 44° NNE 06:53:35 44° NNE visible
17 Apr ? 08:46:27 10° NW 08:49:30 18° NW 08:49:30 18° NW visible
18 Apr ? 05:58:52 10° N 06:04:22 31° NE 06:04:22 31° NE visible
18 Apr ? 07:55:25 10° NNW 08:00:16 32° NW 08:00:16 32° NW visible
19 Apr ? 05:10:53 10° NNE 05:15:09 17° ENE 05:15:09 17° ENE visible
19 Apr ? 07:05:19 10° N 07:11:03 47° NNW 07:11:03 47° NNW visible
19 Apr ? 09:06:32 10° WNW 09:06:57 10° WNW 09:06:57 10° WNW visible
20 Apr ? 06:15:48 10° N 06:21:51 44° NNE 06:21:51 44° NNE visible
20 Apr ? 08:13:39 10° NNW 08:17:45 23° WNW 08:17:45 23° WNW visible
